Location: Santa Cristina
(46.5667°N, 11.7167°E)
Time: 04:15:23
(UTC+00:00)

SL-4 R/B - Pass Details

Date: 21 April 2021
Orbit: 427 x 663 km, 51.6° (Epoch: 10 May)

Event Time Altitude Azimuth Distance (km) Brightness Sun altitude
Exits shadow 01:05:35 71° 353° (N) 702 2.5 -26.2°
Maximum altitude 01:05:50 74° 22° (NNE) 694 2.5 -26.2°
Drops below altitude 10° 01:10:39 10° 108° (ESE) 2,072 5.1 -25.8°
Sets 01:12:59 0° 110° (ESE) 2,969 5.9 -25.6°
